Hourly Data Report for March 28, 2017

PORT ALBERNI (AUT)
BRITISH COLUMBIA

49°18'59.700" N
124°55'36.600" W
76.20 m
1036B06
71475
WQC

Download Data

Hourly Data (March 2017)
Hourly Data Report for March 28, 2017
TIME
LST
Temp Definition
°C
Dew Point Definition
°C
Rel Hum Definition
%
Precip. Amount Definition
mm

Wind Dir Definition
10's deg

Wind Spd Definition
km/h
Visibility Definition
km
Stn Press Definition
kPa
Hmdx Definition


Wind Chill Definition


Weather Definition


00:00 5.7 4.7 93 0.4 8 16   100.86     LegendNANA
01:00 5.8 5.0 95 0.6 9 5   100.87     LegendNANA
02:00 5.5 5.1 97 1.6 29 3   100.83     LegendNANA
03:00 5.0 4.5 97 1.9 27 2   100.76     LegendNANA
04:00 4.8 4.3 97 3.0 26 3   100.73     LegendNANA
05:00 4.7 4.3 97 3.3 34 8   100.72     LegendNANA
06:00 4.4 3.9 96 1.9 29 5   100.67     LegendNANA
07:00 4.4 3.9 97 1.2 28 9   100.72     LegendNANA
08:00 4.4 3.9 97 0.8 30 6   100.70     LegendNANA
09:00 5.0 4.5 96 0.9 28 5   100.76     LegendNANA
10:00 5.6 5.0 96 0.3 31 3   100.80     LegendNANA
11:00 6.1 5.3 95 0.2 30 6   100.82     LegendNANA
12:00 7.0 6.0 93 0.2 29 5   100.87     LegendNANA
13:00 8.7 7.3 91 0.0 25 5   100.85     LegendNANA
14:00 9.2 7.8 91 0.0 23 5   100.83     LegendNANA
15:00 9.9 8.2 89 0.2 26 2   100.83     LegendNANA
16:00 10.5 8.7 89 0.0 13 6   100.84     LegendNANA
17:00 10.3 8.9 91 0.0 21 4   100.83     LegendNANA
18:00 9.6 8.6 93 0.1 23 5   100.83     LegendNANA
19:00 8.5 7.6 94 0.1 24 3   100.83     LegendNANA
20:00 8.1 7.4 96 0.0 22 5   100.82     LegendNANA
21:00 7.7 7.2 97 0.0 20 3   100.77     LegendNANA
22:00 7.7 7.3 97 0.3 34 4   100.72     LegendNANA
23:00 7.4 7.0 98 1.1   0   100.65     LegendNANA

Notes on Data Quality.

Legend

  • E = Estimated
  • M = Missing
  • NA = Not Available*
  • [empty] = Indicates an unobserved value
Date modified: